Search for airport 
image banner adimage banner adimage banner ad
image banner ad

NV27 - Circle L Ranch

Located in Dyer, United States

ICAO - NV27, IATA -

Data provided by Airmate  

General information

Coordinates: N37°42'60" W118°5'3"
Elevation is 4835 feet MSL.
Magnetic variation is 15° East
View others Airports in Nevada

Operational data

Special qualification required
Current time UTC:
Current local time:
Weather at : KBIH - Bishop ( 45 km )
METAR: KBIH 131056Z AUTO 29005KT 10SM CLR 14/M03 A2993 RMK AO2 SLP083 T01391028
TAF: KBIH 130520Z 1306/1406 16009KT P6SM SKC FM130900 VRB05KT P6SM FEW250 FM131900 16020G30KT P6SM FEW250 FM140300 16015KT P6SM FEW250
View NOTAMs / SUP AIP / TFR affecting this airport [VIEW]
Communications frequencies: [VIEW]

Runways:

RWY identifierQFULength (ft)Width (ft)SurfaceLDA (ft)
03440060ASPH
21440060ASPH
13440060ASPH
31440060ASPH

Airport contact information

Address: Dyer United States

Satellite view of NV27